Location: Mansfield Dam
(30.3944°N, 97.9097°W)
Time: 23:14:25
(UTC-05:00)

Daily predictions for brighter satellites

Satellite Brightness Start Highest point End
(mag) Time Altitude Azimuth Time Altitude Azimuth Time Altitude Azimuth
SMAP 3.1 19:09:46 10° SSE 19:14:25 88° WSW 19:19:05 10° NNW
EO 1 Del DPAF 3.3 19:11:24 10° NNE 19:15:13 62° ESE 19:18:59 10° S
Landsat 4 4.3 19:11:49 10° N 19:15:29 61° WNW 19:19:09 10° SSW
COSMO-SKYMED 1 2.7 19:12:41 10° NNE 19:16:55 52° E 19:21:08 10° S
Cosmos 2322 3.7 19:11:24 10° NNW 19:17:07 69° ENE 19:22:46 10° SSE
Molniya-1 1.5 19:17:29 10° SW 19:18:10 37° WNW 19:18:54 10° NNE
CZ-4 R/B 1.4 19:14:46 10° SSE 19:18:59 83° ENE 19:23:08 10° N
Cosmos 2219 Rocket 3.3 19:15:49 10° NNE 19:20:06 22° ENE 19:24:23 10° ESE
MTI 4.1 19:18:21 10° N 19:21:32 71° WNW 19:24:43 10° SSW
GRACE-2 3.6 19:21:32 10° SSE 19:24:03 59° E 19:26:34 10° N
Meteor 1-28 Rocket 4.1 19:21:11 10° N 19:24:51 52° WNW 19:28:29 10° SSW
CZ-4C R/B 2.7 19:20:05 10° SW 19:25:01 57° WNW 19:30:33 10° NNE
Cosmos 1805 Rocket 4.4 19:22:10 10° NNE 19:25:58 28° E 19:29:46 10° SE
MINOTAUR R/B 4.3 19:23:57 10° S 19:26:29 49° ESE 19:29:02 10° NNE
IRS-1A Rocket 4.4 19:23:07 10° SSE 19:28:58 88° ENE 19:34:54 10° NNW
GRACE-1 3.6 19:28:12 10° S 19:30:45 89° SSE 19:33:20 10° N
Aureole 2 Rocket 3.8 19:28:03 10° NNE 19:31:27 25° ENE 19:34:51 10° SE
YAOGAN 1 2.5 19:27:21 10° SSE 19:31:40 79° ENE 19:36:00 10° N
Cosmos 1269 Rocket 4.3 19:28:02 10° SSW 19:33:17 74° WNW 19:38:34 10° NNE
LE-5 4.2 19:32:36 10° SW 19:34:03 22° SSE 19:35:18 14° ESE
Delta 198 4.3 19:30:54 10° WSW 19:34:38 35° S 19:37:51 11° ESE
Cosmos 1626 4.2 19:31:20 10° NNW 19:34:43 33° W 19:38:04 10° SSW
BREEZE-M R/B 2.5 19:33:45 10° WSW 19:36:05 51° NW 19:39:03 10° NE
Iridium 4 Rocket 3.8 19:30:51 10° SSE 19:36:17 62° E 19:42:04 10° N
CZ-4 R/B 4.4 19:32:36 10° SSE 19:36:43 82° ENE 19:40:52 10° N
Cosmos 1484 Rocket 4.3 19:33:32 10° SSW 19:37:01 38° W 19:40:30 10° NNW
Cosmos 1315 Rocket 3.1 19:35:06 10° N 19:39:13 77° W 19:43:19 10° S
Cosmos 1633 Rocket 4.3 19:35:58 10° NNE 19:39:14 20° ENE 19:42:30 10° SE
Cosmos 494 Rocket 4.1 19:40:43 10° S 19:45:38 51° ESE 19:50:35 10° NNE
Cosmos 2221 3.5 19:43:43 10° SSW 19:47:54 50° W 19:52:08 10° N
Cosmos 1452 Rocket 4.5 19:44:22 10° NNW 19:49:27 51° WSW 19:54:31 10° S
SPOT 3 Rocket 3.5 19:44:21 10° SSE 19:49:28 68° ENE 19:54:39 10° N
Cosmos 2333 4.2 19:47:26 10° NNW 19:53:10 73° ENE 19:58:55 10° SSE
H-2A R/B 4.3 19:55:29 19° NE 19:55:29 19° NE 19:57:21 10° NNE
Delta 2 Rocket 3.2 19:51:21 10° WNW 19:55:17 57° NNE 19:56:55 29° E
Cosmos 1934 Rocket 4.0 19:49:06 10° S 19:55:23 69° E 20:01:43 10° NNE
Cosmos 2237 Rocket 3.2 19:54:24 10° N 19:59:02 25° ENE 20:00:17 23° E
Cosmos 1821 Rocket 4.1 19:53:02 10° S 19:59:10 81° W 20:05:26 10° N
Cosmos 2227 Rocket 2.1 19:54:32 10° S 20:00:06 65° ESE 20:05:43 10° NNE
Cosmos 1000 Rocket 4.4 19:56:53 10° N 20:03:06 89° E 20:09:14 10° S
Sakura Rocket 3.8 20:00:01 10° SW 20:03:41 30° SSE 20:04:50 25° SE
Cosmos 1110 Rocket 4.5 19:58:52 10° N 20:03:47 37° ENE 20:07:00 19° SE
Cosmos 2098 Rocket 4.1 20:00:34 10° SSW 20:04:56 58° W 20:10:32 10° N
Cosmos 1300 2.7 20:01:21 10° S 20:05:10 82° W 20:09:00 10° N
ALOS 2.2 20:10:29 10° SSE 20:15:09 88° W 20:19:50 10° NNW
FALCON 9 R/B 3.8 20:14:19 10° SW 20:15:44 13° SSW 20:17:37 10° SSE
FENGYUN 3A 3.6 20:14:57 10° SSE 20:20:21 86° WSW 20:25:47 10° NNW
Meteor 2-10 4.4 20:17:18 10° SSW 20:22:15 61° W 20:27:19 10° N
Atlas Centaur 2 3.2 20:18:50 10° W 20:22:38 29° SSW 20:25:37 17° SSE
Gbstr 26 Del rocket 3.7 20:18:27 10° NW 20:23:46 65° NE 20:26:24 35° ESE
Cosmos 1980 3.9 20:18:31 10° N 20:23:55 45° ENE 20:24:57 41° E
Cosmos 1515 Rocket 3.7 20:21:56 10° S 20:25:39 50° ESE 20:25:39 50° ESE
Cosmos 2251 Rocket 3.5 20:22:53 10° SSW 20:28:09 83° WNW 20:33:30 10° NNE
Cosmos 1605 Rocket 3.9 20:27:40 10° S 20:33:47 85° W 20:39:54 10° N
Hubble Space Telescope 0.9 20:31:55 10° WSW 20:35:51 65° SSW 20:35:51 65° SSW
COSMOS 2428 3.9 20:30:49 10° NW 20:36:07 41° WSW 20:41:25 10° S
OAO 1 Rocket 4.4 20:31:18 10° WNW 20:36:34 64° NNE 20:37:16 58° NE
Cosmos 2123 Rocket 4.0 20:30:48 10° N 20:37:04 87° W 20:43:22 10° S
Cosmos 2297 Rocket 2.4 20:31:31 10° SSW 20:37:08 70° WNW 20:42:47 10° NNE
Cosmos 2333 Rocket 2.2 20:33:16 10° NNW 20:39:02 85° WSW 20:43:35 17° SSE
Cosmos 1153 Rocket 4.3 20:34:33 10° S 20:40:37 71° E 20:46:47 10° N
BREEZE-M DEB (TANK) 4.4 20:30:38 10° NW 20:41:27 31° NNE 20:42:21 30° NNE
NOSS 0 Rocket 3.8 20:37:09 10° NNW 20:43:19 88° ENE 20:46:51 27° SSE
DELTA 2 R/B (1) 4.2 20:37:55 10° WNW 20:43:20 52° SW 20:45:08 37° SSE
Sich 1 4.1 20:40:58 10° NNW 20:45:10 45° W 20:49:23 10° SSW
Cosmos 2082 4.3 20:43:04 10° SSW 20:48:40 56° WNW 20:54:11 11° N
Meteor 2-17 Rocket 4.2 20:42:41 10° S 20:48:43 77° E 20:54:47 10° N
USA 267 3.1 20:52:07 59° ENE 20:53:14 69° SE 20:59:43 10° SSW
Cosmos 1331 Rocket 4.1 20:50:57 10° NNW 20:56:08 73° WSW 20:56:57 60° SSW
Cosmos 2219 Rocket 3.4 20:58:57 10° NW 21:04:06 39° WSW 21:09:16 10° S
Meteosat 1 Rocket2 4.5 21:02:13 10° WSW 21:08:31 45° SSW 21:08:31 45° SSW
Centaur D AC-29 2.3 21:03:55 10° W 21:08:57 40° SW 21:08:57 40° SW
Cosmos 1447 Rocket 4.5 21:07:55 10° N 21:13:50 77° NW 21:13:50 77° NW
Cosmos 2237 Rocket 3.7 21:37:59 10° NW 21:42:12 33° W 21:42:12 33° W
